Date String (YYYY-MM-DD hh:mm:ss) UTC,Instrument flags,Ambient pressure (hPa),Sample flow (lpm),Bypass flow (lpm),Sample temperature (°C),Ambient temperature (°C),ASC tube jacket temperature (°C),LED temperature (°C),Box temperature (°C),Sample RH (%),Span deviation,Mass concentration (μg/m³),Mass concentration (μg/m³),Mass concentration (μg/m³)
DateTimeUTC,F1_M11,P_M11,Q1_M11,Q2_M11,T1_M11,T2_M11,T3_M11,T4_M11,T5_M11,U1_M11,ZSPAN_M11,X0_M11,X2_M11,X1_M11
2022-04-05 06:00:00,,0809.4,5.01,0.00,27.5,26.5,00.0,36.5,29.2,10.6,0000.0,0014.08,0004.14,0001.86
2022-04-05 06:01:00,,0809.6,5.01,0.00,27.4,26.4,00.0,36.5,29.2,10.6,0000.0,0014.14,0004.14,0001.84
2022-04-05 06:02:00,,0809.7,4.99,0.00,27.4,26.4,00.0,36.5,29.1,10.6,0000.0,0014.10,0004.08,0001.81
2022-04-05 06:03:00,,0809.6,5.02,0.00,27.4,26.2,00.0,36.5,29.0,10.7,0000.0,0014.09,0004.07,0001.80
2022-04-05 06:04:00,,0809.8,5.00,0.00,27.3,26.2,00.0,36.4,28.9,10.7,0000.0,0014.21,0004.10,0001.82
2022-04-05 06:05:00,,0810.2,4.98,0.00,27.3,26.2,00.0,36.4,29.0,10.7,0000.0,0014.28,0004.15,0001.82
2022-04-05 06:06:00,,0809.6,5.01,0.00,27.3,26.3,00.0,36.4,29.0,10.7,0000.0,0013.60,0004.16,0001.83
2022-04-05 06:07:00,,0809.6,5.00,0.00,27.3,26.3,00.0,36.4,29.0,10.8,0000.0,0013.84,0004.24,0001.84
2022-04-05 06:08:00,,0809.7,5.00,0.00,27.3,26.3,00.0,36.4,29.0,10.8,0000.0,0013.72,0004.21,0001.85
2022-04-05 06:09:00,,0809.9,5.00,0.00,27.2,26.2,00.0,36.4,28.9,10.8,0000.0,0013.99,0004.27,0001.85
2022-04-05 06:10:00,,0809.3,5.02,0.00,27.2,26.2,00.0,36.3,28.9,10.9,0000.0,0014.04,0004.29,0001.86
2022-04-05 06:11:00,,0809.5,4.98,0.00,27.2,26.2,00.0,36.3,28.9,10.9,0000.0,0014.67,0004.30,0001.84
2022-04-05 06:12:00,,0810.0,5.01,0.00,27.2,26.2,00.0,36.3,28.9,10.9,0000.0,0014.66,0004.28,0001.84
2022-04-05 06:13:00,,0810.0,5.00,0.00,27.1,26.2,00.0,36.3,28.8,10.9,0000.0,0014.36,0004.29,0001.85
2022-04-05 06:14:00,,0809.7,4.98,0.00,27.1,26.2,00.0,36.3,28.9,10.9,0000.0,0014.66,0004.32,0001.85
2022-04-05 06:15:00,,0809.8,5.01,0.00,27.2,26.3,00.0,36.3,28.9,10.8,0000.0,0014.97,0004.36,0001.85
2022-04-05 06:16:00,,0809.8,4.98,0.00,27.2,26.3,00.0,36.3,28.9,10.8,0000.0,0015.59,0004.35,0001.87
2022-04-05 06:17:00,,0809.6,4.99,0.00,27.2,26.3,00.0,36.3,29.0,10.9,0000.0,0015.85,0004.41,0001.89
2022-04-05 06:18:00,,0809.4,5.02,0.00,27.2,26.3,00.0,36.2,28.9,10.9,0000.0,0015.18,0004.35,0001.89
2022-04-05 06:19:00,,0809.1,4.98,0.00,27.1,26.2,00.0,36.2,28.9,10.9,0000.0,0015.36,0004.36,0001.89
2022-04-05 06:20:00,,0809.1,5.00,0.00,27.1,26.1,00.0,36.2,28.9,10.9,0000.0,0015.24,0004.34,0001.90
2022-04-05 06:21:00,,0809.3,5.01,0.00,27.1,26.1,00.0,36.2,28.9,10.9,0000.0,0015.75,0004.37,0001.91
2022-04-05 06:22:00,,0809.3,4.99,0.00,27.1,26.1,00.0,36.2,28.8,10.9,0000.0,0015.05,0004.36,0001.93
2022-04-05 06:23:00,,0809.5,5.00,0.00,27.1,26.1,00.0,36.2,28.8,11.0,0000.0,0015.10,0004.41,0001.98
2022-04-05 06:24:00,,0809.5,5.01,0.00,27.1,26.1,00.0,36.2,28.8,11.0,0000.0,0015.97,0004.47,0002.00
2022-04-05 06:25:00,,0809.5,4.99,0.00,27.1,26.1,00.0,36.2,28.8,11.0,0000.0,0015.89,0004.44,0002.01
2022-04-05 06:26:00,,0809.3,4.99,0.00,27.1,26.1,00.0,36.1,28.8,11.0,0000.0,0015.43,0004.41,0002.02
2022-04-05 06:27:00,,0809.5,5.02,0.00,27.1,26.2,00.0,36.1,28.8,11.0,0000.0,0014.49,0004.37,0002.02
2022-04-05 06:28:00,,0809.2,4.98,0.00,27.1,26.2,00.0,36.1,28.9,11.0,0000.0,0014.16,0004.34,0002.03
2022-04-05 06:29:00,,0809.4,4.98,0.00,27.1,26.2,00.0,36.1,28.9,11.0,0000.0,0014.94,0004.32,0002.03
2022-04-05 06:30:00,,0809.6,5.01,0.00,27.1,26.3,00.0,36.1,28.8,11.0,0000.0,0014.55,0004.32,0002.04
2022-04-05 06:31:00,,0809.4,4.99,0.00,27.1,26.2,00.0,36.1,28.8,10.9,0000.0,0014.53,0004.35,0002.06
2022-04-05 06:32:00,,0809.4,5.01,0.00,27.1,26.2,00.0,36.1,28.8,10.9,0000.0,0013.67,0004.34,0002.07
2022-04-05 06:33:00,,0809.2,5.00,0.00,27.1,26.2,00.0,36.1,28.8,10.9,0000.0,0013.77,0004.35,0002.10
2022-04-05 06:34:00,,0809.2,5.00,0.00,27.1,26.2,00.0,36.1,28.8,10.8,0000.0,0013.72,0004.35,0002.11
2022-04-05 06:35:00,,0809.2,5.00,0.00,27.1,26.2,00.0,36.1,28.8,10.8,0000.0,0013.63,0004.34,0002.11
2022-04-05 06:36:00,,0809.3,4.99,0.00,27.0,26.2,00.0,36.1,28.8,10.8,0000.0,0013.78,0004.38,0002.14
2022-04-05 06:37:00,,0808.9,5.00,0.00,27.0,26.2,00.0,36.1,28.8,10.7,0000.0,0013.85,0004.40,0002.13
2022-04-05 06:38:00,,0809.2,5.01,0.00,27.0,26.1,00.0,36.1,28.8,10.7,0000.0,0014.36,0004.47,0002.14
2022-04-05 06:39:00,,0809.3,4.99,0.00,27.0,26.1,00.0,36.1,28.8,10.7,0000.0,0014.69,0004.47,0002.16
2022-04-05 06:40:00,,0809.1,5.00,0.00,27.0,26.1,00.0,36.1,28.8,10.7,0000.0,0014.12,0004.53,0002.21
2022-04-05 06:41:00,,0809.0,5.01,0.00,27.0,26.1,00.0,36.0,28.7,10.8,0000.0,0013.98,0004.57,0002.21
2022-04-05 06:42:00,,0809.0,4.99,0.00,26.9,26.0,00.0,36.0,28.7,10.9,0000.0,0014.33,0004.59,0002.20
2022-04-05 06:43:00,,0808.9,5.00,0.00,26.9,26.0,00.0,36.0,28.7,10.9,0000.0,0014.74,0004.56,0002.19
2022-04-05 06:44:00,,0808.9,4.99,0.00,26.9,26.0,00.0,36.0,28.7,11.0,0000.0,0014.17,0004.54,0002.17
2022-04-05 06:45:00,,0809.0,5.00,0.00,26.9,25.9,00.0,36.0,28.7,11.0,0000.0,0013.77,0004.49,0002.14
2022-04-05 06:46:00,,0809.1,5.00,0.00,26.9,25.9,00.0,36.0,28.6,11.1,0000.0,0013.57,0004.49,0002.13
2022-04-05 06:47:00,,0809.1,5.00,0.00,26.9,25.9,00.0,36.0,28.6,11.0,0000.0,0013.77,0004.58,0002.15
2022-04-05 06:48:00,,0809.0,4.99,0.00,26.9,25.9,00.0,36.0,28.6,11.2,0000.0,0015.04,0004.65,0002.16
2022-04-05 06:49:00,,0808.9,5.01,0.00,26.9,25.8,00.0,35.9,28.6,11.1,0000.0,0014.72,0004.63,0002.16
2022-04-05 06:50:00,,0808.7,4.99,0.00,26.9,25.8,00.0,35.9,28.6,11.3,0000.0,0014.32,0004.59,0002.13
2022-04-05 06:51:00,,0808.6,4.99,0.00,26.9,25.8,00.0,35.9,28.6,11.3,0000.0,0014.48,0004.58,0002.07
2022-04-05 06:52:00,,0808.9,5.01,0.00,26.9,25.7,00.0,35.9,28.6,11.4,0000.0,0014.77,0004.61,0002.08
2022-04-05 06:53:00,,0808.7,4.99,0.00,26.8,25.7,00.0,35.9,28.6,11.5,0000.0,0014.65,0004.65,0002.08
2022-04-05 06:54:00,,0808.6,4.99,0.00,26.8,25.7,00.0,35.9,28.6,11.6,0000.0,0014.64,0004.74,0002.10
2022-04-05 06:55:00,,0808.2,5.02,0.00,26.8,25.7,00.0,35.9,28.5,11.7,0000.0,0016.90,0004.74,0002.09
2022-04-05 06:56:00,,0808.2,4.99,0.00,26.8,25.7,00.0,35.8,28.5,11.6,0000.0,0017.22,0004.78,0002.10
2022-04-05 06:57:00,,0808.1,5.01,0.00,26.8,25.7,00.0,35.8,28.5,11.7,0000.0,0017.61,0004.80,0002.10
2022-04-05 06:58:00,,0808.0,5.00,0.00,26.8,25.7,00.0,35.8,28.5,11.8,0000.0,0019.74,0004.79,0002.10
2022-04-05 06:59:00,,0807.7,5.01,0.00,26.7,25.7,00.0,35.8,28.4,11.9,0000.0,0019.15,0004.74,0002.09
